Location: Assche-ter-Heiden
(50.9174°N, 4.1574°E)
Time: 11:09:13
(UTC+00:00)

BREEZE-M DEB (TANK) - Pass Details

Date: 20 January 2020
Orbit: 278 x 13109 km, 49.6° (Epoch: 18 February)

Event Time Altitude Azimuth Distance (km) Brightness Sun altitude
Exits shadow 04:21:03 31° 129° (SE) 1,109 4.1 -30.2°
Drops below altitude 10° 04:26:40 10° 77° (ENE) 3,400 7.2 -29.3°
Sets 04:32:21 0° 70° (ENE) 5,895 8.6 -28.4°
